Weather History for Oconto, WI

Change the Weather History Date:

Tuesday, April 8, 2014

  Actual Average Record
Temperature  
Mean Temperature 43 °F -  
Max Temperature 57 °F 49 °F 57 °F (2014)
Min Temperature 28 °F 27 °F 28 °F (2014)
Degree Days  
Heating Degree Days 22    
Moisture  
Dew Point 33 °F    
Average Humidity 70    
Maximum Humidity 95    
Minimum Humidity 31    
Precipitation  
Precipitation 0.00 in - - ()
Sea Level Pressure  
Sea Level Pressure 29.76 in    
Wind  
Wind Speed 5 mph (NNW)    
Max Wind Speed 13 mph    
Max Gust Speed 21 mph    
Visibility 10 miles    
Events      
Averages and records for this station are not official NWS values.
T = Trace of Precipitation, MM = Missing Value Source: NWS Daily Summary

Daily Weather History Graph

Daily Weather History Graph

Search for Another Location

Airport:

Trip Planner

Search our weather history database for the weather conditions in past years. The results will help you decide how hot, cold, wet, or windy it might be!

Date:

Astronomy

Apr. 08, 2014 Rise Set
Actual Time 6:19 AM CDT 7:28 PM CDT
Civil Twilight 5:49 AM CDT 7:58 PM CDT
Nautical Twilight 5:13 AM CDT 8:34 PM CDT
Astronomical Twilight 4:35 AM CDT 9:12 PM CDT
Moon 1:06 PM CDT (4/8) 2:47 AM CDT (4/8)
Length of Visible Light 14h 08m
Length of Day
13h 08m
Waxing Gibbous, 63% of the Moon is Illuminated
Apr 8
Waxing Gibbous
Apr 15
Full
Apr 22
Last Quarter
Apr 29
New
May 6
First Quarter

Hourly Weather History & Observations

Time (CDT) Temp. Windchill Dew Point Humidity Pressure Visibility Wind Dir Wind Speed Gust Speed Precip Events Conditions
12:15 AM 43.0 °F 37.7 °F 36.5 °F 78% 29.65 in 10.0 mi North 9.2 mph - N/A   Overcast
12:35 AM 42.3 °F 37.3 °F 36.7 °F 81% 29.64 in 10.0 mi North 8.1 mph - N/A   Overcast
12:55 AM 41.4 °F 37.6 °F 37.2 °F 85% 29.65 in 10.0 mi North 5.8 mph - N/A   Overcast
1:15 AM 40.5 °F 37.3 °F 38.3 °F 92% 29.64 in 7.0 mi North 4.6 mph - N/A   Overcast
1:35 AM 40.1 °F 36.9 °F 38.3 °F 93% 29.65 in 7.0 mi North 4.6 mph - N/A   Overcast
1:55 AM 40.1 °F 36.1 °F 37.9 °F 92% 29.64 in 7.0 mi North 5.8 mph - N/A   Overcast
2:15 AM 39.6 °F 37.4 °F 37.8 °F 93% 29.64 in 7.0 mi NNW 3.5 mph - N/A   Overcast
2:35 AM 39.2 °F 37.0 °F 37.8 °F 95% 29.64 in 7.0 mi WNW 3.5 mph - N/A   Overcast
2:55 AM 39.2 °F 37.0 °F 37.6 °F 94% 29.64 in 7.0 mi WNW 3.5 mph - N/A   Overcast
3:15 AM 39.2 °F - 37.6 °F 94% 29.64 in 7.0 mi Calm Calm - N/A   Overcast
3:35 AM 39.2 °F 37.0 °F 37.4 °F 93% 29.64 in 7.0 mi NW 3.5 mph - N/A   Overcast
3:55 AM 39.2 °F 35.9 °F 37.4 °F 93% 29.64 in 7.0 mi NNW 4.6 mph - N/A   Overcast
4:15 AM 39.2 °F 37.0 °F 37.0 °F 92% 29.65 in 10.0 mi NW 3.5 mph - N/A   Overcast
4:35 AM 39.2 °F 37.0 °F 36.5 °F 90% 29.65 in 10.0 mi NNW 3.5 mph - N/A   Overcast
4:55 AM 39.2 °F 37.0 °F 36.1 °F 89% 29.65 in 10.0 mi NW 3.5 mph - N/A   Overcast
5:15 AM 38.5 °F 35.0 °F 35.8 °F 90% 29.66 in 10.0 mi NW 4.6 mph - N/A   Overcast
5:35 AM 38.3 °F 34.8 °F 34.9 °F 87% 29.66 in 10.0 mi NW 4.6 mph - N/A   Overcast
5:55 AM 37.6 °F 35.1 °F 34.2 °F 87% 29.67 in 10.0 mi NW 3.5 mph - N/A   Mostly Cloudy
6:15 AM 37.0 °F 34.5 °F 33.8 °F 88% 29.68 in 10.0 mi WNW 3.5 mph - N/A   Overcast
6:35 AM 36.7 °F 34.1 °F 33.4 °F 88% 29.69 in 10.0 mi WNW 3.5 mph - N/A   Scattered Clouds
6:55 AM 36.5 °F 33.9 °F 33.4 °F 89% 29.70 in 10.0 mi WNW 3.5 mph - N/A   Clear
7:15 AM 37.4 °F 34.9 °F 34.0 °F 87% 29.70 in 10.0 mi NW 3.5 mph - N/A   Mostly Cloudy
7:35 AM 38.5 °F 36.1 °F 34.9 °F 87% 29.71 in 10.0 mi NW 3.5 mph - N/A   Overcast
7:55 AM 39.0 °F 35.7 °F 35.1 °F 86% 29.71 in 10.0 mi NW 4.6 mph - N/A   Overcast
8:10 AM 39.4 °F 37.2 °F 35.6 °F 86% 29.71 in 10.0 mi NW 3.5 mph - N/A   Overcast
8:35 AM 40.1 °F 36.9 °F 36.5 °F 87% 29.71 in 10.0 mi NW 4.6 mph - N/A   Overcast
8:55 AM 42.3 °F 38.6 °F 37.9 °F 85% 29.71 in 10.0 mi NW 5.8 mph - N/A   Mostly Cloudy
9:15 AM 44.6 °F 41.4 °F 38.7 °F 80% 29.72 in 10.0 mi NNW 5.8 mph - N/A   Mostly Cloudy
9:35 AM 45.0 °F 40.6 °F 37.6 °F 75% 29.72 in 10.0 mi NNW 8.1 mph 18.4 mph N/A   Overcast
9:55 AM 47.1 °F - 38.3 °F 71% 29.73 in 10.0 mi North 9.2 mph - N/A   Overcast
10:15 AM 46.8 °F - 37.6 °F 70% 29.73 in 10.0 mi NW 5.8 mph - N/A   Overcast
10:35 AM 45.7 °F 41.5 °F 36.5 °F 70% 29.74 in 10.0 mi NNW 8.1 mph - N/A   Overcast
10:55 AM 46.6 °F - 37.0 °F 69% 29.74 in 10.0 mi NNW 5.8 mph - N/A   Overcast
11:15 AM 48.4 °F - 36.7 °F 64% 29.74 in 10.0 mi NNW 8.1 mph - N/A   Overcast
11:35 AM 51.3 °F - 36.7 °F 57% 29.75 in 10.0 mi NW 6.9 mph - N/A   Overcast
11:55 AM 51.8 °F - 36.1 °F 55% 29.75 in 10.0 mi NW 9.2 mph - N/A   Overcast
12:15 PM 53.8 °F - 36.1 °F 51% 29.75 in 10.0 mi NNW 6.9 mph - N/A   Mostly Cloudy
12:35 PM 54.3 °F - 36.1 °F 50% 29.75 in 10.0 mi NW 8.1 mph - N/A   Scattered Clouds
12:55 PM 55.2 °F - 35.1 °F 47% 29.75 in 10.0 mi WNW 6.9 mph - N/A   Scattered Clouds
1:15 PM 54.5 °F - 30.7 °F 40% 29.75 in 10.0 mi North 8.1 mph - N/A   Overcast
1:35 PM 54.7 °F - 29.1 °F 38% 29.75 in 10.0 mi North 9.2 mph - N/A   Overcast
1:50 PM 55.6 °F - 27.0 °F 33% 29.75 in 10.0 mi NNE 12.7 mph - N/A   Overcast
2:15 PM 56.8 °F - 28.0 °F 33% 29.76 in 10.0 mi NNW 9.2 mph 17.3 mph N/A   Mostly Cloudy
2:35 PM 57.7 °F - 27.3 °F 31% 29.77 in 10.0 mi NNW 12.7 mph 18.4 mph N/A   Mostly Cloudy
2:55 PM 57.4 °F - 27.5 °F 32% 29.77 in 10.0 mi North 11.5 mph 20.7 mph N/A   Mostly Cloudy
3:15 PM 55.4 °F - 26.1 °F 32% 29.77 in 10.0 mi NNE 10.4 mph - N/A   Scattered Clouds
3:35 PM 57.4 °F - 28.4 °F 33% 29.78 in 10.0 mi East 5.8 mph 16.1 mph N/A   Mostly Cloudy
3:55 PM 52.3 °F - 31.3 °F 45% 29.78 in 10.0 mi East 8.1 mph - N/A   Scattered Clouds
4:15 PM 49.6 °F - 30.9 °F 49% 29.79 in 10.0 mi East 6.9 mph - N/A   Clear
4:35 PM 48.6 °F - 31.8 °F 52% 29.80 in 10.0 mi East 6.9 mph - N/A   Mostly Cloudy
4:55 PM 47.8 °F - 32.0 °F 54% 29.81 in 10.0 mi East 8.1 mph - N/A   Overcast
5:15 PM 46.4 °F 44.3 °F 32.0 °F 57% 29.82 in 10.0 mi East 4.6 mph - N/A   Overcast
5:35 PM 45.7 °F 44.4 °F 32.0 °F 59% 29.83 in 10.0 mi NE 3.5 mph - N/A   Overcast
5:55 PM 45.3 °F - 32.0 °F 60% 29.84 in 10.0 mi Calm Calm - N/A   Overcast
6:15 PM 44.6 °F 41.4 °F 31.5 °F 60% 29.84 in 10.0 mi East 5.8 mph - N/A   Overcast
6:35 PM 44.2 °F 42.7 °F 30.7 °F 59% 29.85 in 10.0 mi East 3.5 mph - N/A   Overcast
6:55 PM 43.3 °F 41.7 °F 30.2 °F 60% 29.86 in 10.0 mi East 3.5 mph - N/A   Overcast
7:15 PM 42.8 °F 40.1 °F 29.5 °F 59% 29.87 in 10.0 mi East 4.6 mph - N/A   Overcast
7:35 PM 42.1 °F 39.2 °F 29.1 °F 60% 29.87 in 10.0 mi East 4.6 mph - N/A   Overcast
7:55 PM 42.1 °F 40.2 °F 28.2 °F 58% 29.88 in 10.0 mi East 3.5 mph - N/A   Overcast
8:15 PM 41.0 °F - 28.0 °F 60% 29.90 in 10.0 mi Calm Calm - N/A   Overcast
8:35 PM 39.2 °F 37.0 °F 28.0 °F 64% 29.90 in 10.0 mi East 3.5 mph - N/A   Overcast
8:55 PM 38.5 °F - 27.3 °F 64% 29.91 in 10.0 mi Calm Calm - N/A   Mostly Cloudy
9:15 PM 36.0 °F - 26.6 °F 69% 29.91 in 10.0 mi Calm Calm - N/A   Scattered Clouds
9:35 PM 33.3 °F - 26.2 °F 75% 29.92 in 10.0 mi Calm Calm - N/A   Clear
9:55 PM 32.2 °F - 26.4 °F 79% 29.92 in 10.0 mi Calm Calm - N/A   Clear
10:15 PM 30.2 °F - 25.7 °F 83% 29.92 in 10.0 mi Calm Calm - N/A   Scattered Clouds
10:35 PM 32.0 °F - 26.2 °F 79% 29.92 in 10.0 mi Calm Calm - N/A   Overcast
10:55 PM 32.0 °F - 26.6 °F 80% 29.92 in 10.0 mi Calm Calm - N/A   Overcast
11:15 PM 31.8 °F - 26.6 °F 81% 29.93 in 10.0 mi Calm Calm - N/A   Scattered Clouds
11:35 PM 29.3 °F - 25.7 °F 86% 29.93 in 10.0 mi Calm Calm - N/A   Clear
11:55 PM 28.4 °F - 25.2 °F 88% 29.93 in 10.0 mi Calm Calm - N/A   Clear